sat.trackr.live / text

‹ back to catalog

STARLINK-32755

NORAD 62842 · 2025-019P

PAYLOAD ACTIVE UNKNOWN

§ Identity

Operator
Country
US
Launch date
2025-01-27
Launch site
AFETR
Launch vehicle
Mass (kg)
RCS (m²)

Purposes: comms

External: N2YO · Heavens-Above · Gunter

§ Orbital elements

Epoch: 2026-09-21T17:26:30.272928Z

Period
94.27 min
Inclination
43.0068°
Eccentricity
0.0002082
Mean motion
15.27595731 rev/d
Perigee alt
481.6 km
Apogee alt
484.4 km
Semi-major
6,861.1 km
B*
6.5341e-4
RAAN
54.8261°
Arg perigee
297.2445°
Mean anomaly
62.8194°
Rev number
9,231

§ Raw data

STARLINK-327551 62842U 25019P   26264.72673927  .00017770  00000+0  65341-3 0  99952 62842  43.0068  54.8261 0002082 297.2445  62.8194 15.27595731 92316

JSON: /api/v1/satellites/62842 · /tle

For live sub-satellite position, see the globe view (requires WebGL).

§ Visibility from observer

Set your observer location to see the next 7 days of passes ≥ 10°. The values pass through the URL so the page stays shareable.

No JS? Fill the form by hand. The geolocation button needs JavaScript.